Location: ?
(35.3436°N, 139.3168°E)
Time: 10:36:55
(UTC+00:00)

X-37B - Pass Details

Date: 15 May 2021
Orbit: 386 x 389 km, 45.0° (Epoch: 10 June)

Event Time Altitude Azimuth Distance (km) Brightness Sun altitude
Rises 11:40:12 0° 293° (WNW) 2,270 5.7 -21.1°
Reaches altitude 10° 11:42:24 10° 282° (WNW) 1,412 4.2 -21.4°
Enters shadow 11:44:27 26° 248° (WSW) 791 2.3 -21.7°
